Wetbulb
54.64 54.21 53.65 53.44 53.50 53.63 53.04 52.74 52.76 53.09 53.66 53.56 52.77 52.07 51.70 51.39 51.58 51.54 51.39 51.12 49.85 49.24 49.31 48.79 48.03 48.67 48.24 48.52 48.87 49.00 48.62 49.12 46.83 42.76 42.36 41.73 41.82 42.18 43.95 43.91 45.21 42.89 40.87
53.56 53.28 53.25 52.89 52.47 52.05 52.01 52.19 52.61 52.03 52.43 52.29 52.26 51.78 51.53 51.33 51.43 51.28 51.05 51.13 50.25 49.30 49.00 48.91 48.39 49.37 47.78 47.90 47.85 46.56 46.72 46.45 46.37 43.00 39.67 39.57 40.07 40.62 40.36 42.36 43.22 44.17 39.60
53.16 52.76 52.67 52.30 51.95 51.74 51.92 52.05 52.08 51.68 51.74 51.98 51.88 51.50 51.47 51.50 51.36 51.27 50.92 50.62 50.35 49.78 49.10 48.66 47.90 47.74 46.24 44.67 43.95 42.00 41.59 42.58 41.89 40.02 39.01 41.08 41.82 42.16 40.86 40.61 40.42 38.23 41.48
51.37 51.54 51.20 51.48 51.47 51.53 51.59 51.30 51.00 50.66 50.03 49.84 50.15 51.22 51.30 51.48 51.54 51.45 50.98 50.20 49.65 49.16 48.74 47.65 46.78 45.85 43.21 41.65 41.49 41.34 41.63 40.32 40.35 40.54 40.20 40.01 40.40 39.89 39.01 36.56 35.98 37.39 38.03
49.55 49.21 48.57 49.09 49.47 49.15 48.89 47.43 46.25 45.98 46.32 45.63 45.18 44.77 45.57 46.24 47.49 47.10 47.02 45.65 44.62 43.30 43.09 43.26 43.25 44.53 46.51 44.32 42.29 41.40 40.86 40.43 40.22 39.60 38.83 38.09 37.09 35.39 34.29 35.42 34.67 34.92 35.99
48.64 47.81 47.81 47.00 46.38 45.57 45.55 45.20 44.16 43.84 43.82 44.28 44.26 44.96 45.03 46.53 48.99 47.73 44.33 42.47 42.23 41.91 41.77 43.65 45.63 47.71 47.70 48.07 47.79 47.20 43.21 39.20 38.31 36.32 35.31 34.24 33.23 34.28 34.14 33.62 33.31 32.54 31.63
48.07 47.70 47.30 46.74 46.03 45.81 45.93 45.70 45.25 44.12 43.10 42.56 43.25 44.18 44.17 46.09 49.33 48.44 46.83 43.04 42.24 42.22 42.78 43.27 44.10 45.83 44.61 43.69 47.24 46.47 44.97 45.21 42.26 35.98 33.84 33.54 32.50 33.36 33.14 32.46 32.03 31.55 31.78
48.38 48.35 48.17 47.25 46.32 46.36 44.42 41.50 39.96 39.74 39.39 39.80 39.92 40.64 42.03 45.71 49.15 48.71 47.16 40.64 40.33 39.77 39.60 40.33 40.60 40.01 42.18 41.90 39.57 38.16 37.62 38.08 38.68 38.74 35.22 34.63 34.62 34.99 34.46 35.00 33.25 32.65 33.30
48.66 48.49 48.58 46.07 43.91 42.54 40.85 39.50 38.98 39.45 38.82 38.00 37.94 37.74 38.09 40.69 47.86 46.91 41.19 37.12 36.60 36.58 38.82 37.86 37.35 37.26 44.46 44.09 37.18 35.42 37.22 38.57 44.40 43.91 42.21 41.61 41.09 40.37 38.42 33.27 31.55 31.01 30.43
47.68 46.60 45.60 44.59 43.50 41.73 40.10 39.17 38.01 37.82 38.53 38.58 36.74 36.00 41.72 36.57 46.04 45.33 39.83 36.09 34.29 35.15 34.85 38.81 43.54 40.13 43.28 43.33 37.19 35.95 34.64 35.60 36.73 38.12 37.78 37.84 39.07 36.75 39.96 33.44 32.36 30.09 31.40
46.88 45.88 45.03 44.12 42.18 40.27 38.47 37.26 36.28 36.45 36.90 36.17 35.55 34.39 34.38 36.23 40.13 44.68 43.30 35.51 34.66 34.58 34.91 36.09 37.45 43.00 43.62 42.72 42.42 37.14 37.20 38.51 39.99 36.54 35.98 36.44 36.59 37.09 37.48 37.46 37.07 35.73 33.53
45.99 44.66 43.32 41.53 42.89 40.16 37.45 35.81 36.63 36.54 35.45 33.74 33.64 33.60 35.36 36.67 43.34 45.04 45.06 43.20 41.51 36.27 36.04 36.12 38.41 42.87 41.75 41.44 40.04 42.62 42.43 40.04 36.72 35.12 34.68 34.32 34.52 34.83 35.67 36.23 36.75 36.80 36.83
43.48 41.89 40.73 40.28 39.43 38.44 37.25 35.84 35.73 35.45 35.36 34.36 34.98 33.95 34.21 36.62 37.61 44.39 44.41 44.22 43.27 37.45 36.88 39.94 41.49 40.34 39.75 37.73 39.59 39.49 40.04 36.32 35.15 33.65 33.11 33.43 34.42 35.34 36.08 36.31 36.90 36.78 36.90
41.29 40.06 39.03 39.40 37.85 36.86 37.75 37.46 36.48 35.46 34.60 35.29 34.72 33.52 34.30 35.06 36.36 36.63 37.09 38.39 42.82 39.78 40.56 37.24 37.70 37.34 37.96 36.33 36.76 38.07 36.91 35.75 35.12 34.40 34.54 35.14 35.74 35.73 34.85 35.27 34.72 34.94 34.10
40.56 39.62 38.98 39.89 38.23 36.09 36.74 36.50 36.58 34.90 37.27 34.56 33.73 33.85 33.71 33.16 36.32 39.20 37.92 35.87 35.47 37.37 35.85 33.85 32.20 31.57 31.15 31.75 35.11 35.79 36.02 35.84 34.82 35.21 35.30 34.45 34.91 35.30 35.24 35.54 34.33 33.21 32.19
39.67 39.01 38.68 38.42 36.95 36.47 35.83 35.87 43.22 41.59 44.00 42.99 41.70 37.64 36.26 39.67 42.84 43.49 43.14 42.04 41.81 42.02 34.30 31.34 30.42 30.78 29.98 29.99 30.66 32.90 34.33 34.72 34.63 34.52 34.18 34.59 34.68 34.38 33.92 34.69 34.79 33.44 32.73
40.47 39.62 39.40 38.96 37.28 35.91 35.95 35.48 34.45 38.66 45.63 45.07 44.72 43.64 42.21 42.21 44.54 44.01 42.92 42.55 42.31 39.24 31.06 30.54 30.00 29.90 30.00 30.14 31.48 31.94 32.91 32.14 32.91 32.73 33.17 33.83 34.13 34.61 34.60 33.17 32.62 33.87 32.42
41.18 43.25 39.44 38.24 37.86 36.95 36.10 34.35 34.69 34.00 32.77 33.86 43.98 42.40 44.65 45.32 45.03 43.57 42.04 40.80 37.17 36.06 32.54 31.36 30.81 30.39 29.82 30.07 31.52 33.38 34.51 33.93 33.94 33.94 35.13 35.05 34.23 33.30 31.13 31.09 32.65 31.94 31.78
41.19 40.82 39.41 38.37 37.81 38.10 36.35 34.96 34.56 33.32 32.91 32.64 33.93 39.43 42.64 43.31 42.72 41.93 41.47 36.60 33.71 34.81 34.31 32.56 32.27 31.27 31.27 30.88 31.56 32.42 31.89 31.01 31.99 33.39 32.75 33.36 33.68 32.88 30.84 31.85 32.33 33.26 33.46
41.94 43.24 41.09 38.43 38.45 37.39 36.30 35.69 34.52 33.63 33.10 32.86 33.68 33.55 35.80 38.98 36.97 37.32 38.30 35.67 34.69 34.48 34.32 33.06 32.70 32.17 32.36 32.40 32.09 31.85 31.21 32.03 32.30 32.83 32.75 32.65 31.88 32.29 32.46 31.88 32.43 32.24 30.36
42.31 42.02 42.60 39.27 38.69 37.70 37.09 36.21 35.57 34.18 33.37 33.27 33.92 35.97 39.35 36.52 36.15 36.57 36.02 34.88 35.29 33.34 32.54 31.97 30.72 31.56 31.86 31.87 31.47 31.13 30.45 31.55 32.96 32.63 32.71 32.25 32.44 32.37 32.86 32.49 31.94 31.97 31.57
42.79 41.93 41.05 39.80 39.23 38.28 37.43 37.37 36.06 34.99 34.40 34.41 34.52 36.83 40.29 35.45 35.97 36.17 33.86 35.94 35.72 33.04 33.16 31.75 31.01 31.00 29.30 28.78 30.17 28.18 28.97 32.37 32.63 32.53 32.64 33.85 32.92 32.21 31.54 31.82 32.52 32.59 31.27
43.20 41.54 40.35 39.44 39.40 40.12 38.49 37.00 35.93 35.17 34.81 34.82 34.68 35.67 36.89 35.40 35.52 33.88 35.67 36.06 34.59 32.60 31.98 31.20 29.00 29.01 30.21 30.57 31.41 32.03 32.40 31.82 32.92 34.85 32.00 30.12 29.16 29.61 29.35 29.98 31.13 29.99 29.86
43.05 41.37 39.92 39.48 39.36 38.43 37.14 36.03 35.57 36.51 34.51 34.41 34.59 35.77 36.59 35.85 34.93 35.93 35.99 34.87 32.59 30.93 29.79 28.50 27.90 28.65 31.25 32.62 33.54 33.97 34.04 34.75 34.37 32.58 32.05 30.98 30.62 30.56 30.49 31.13 31.25 31.51 31.36
42.54 40.79 39.80 39.58 39.53 37.45 37.22 35.60 35.34 34.72 34.01 34.18 34.44 35.96 36.57 34.55 34.76 36.03 35.09 32.62 29.44 28.80 28.57 27.98 27.03 29.77 32.71 32.81 33.29 33.76 34.31 33.53 32.74 32.57 32.10 31.43 30.01 30.26 29.48 30.19 31.65 31.23 30.71
41.82 40.68 39.69 39.20 38.20 37.49 36.83 35.32 34.32 33.30 32.78 33.29 34.24 34.79 34.46 33.32 34.44 35.03 33.73 30.01 28.57 27.89 28.30 26.86 28.07 29.82 32.19 32.48 32.74 33.19 32.86 32.35 31.89 32.22 32.21 31.88 30.94 30.83 31.00 30.81 31.20 30.53 29.72
MSLP
1014.37 1014.54 1014.66 1014.87 1014.95 1015.07 1015.18 1015.36 1015.50 1015.74 1016.12 1016.59 1017.22 1017.69 1018.18 1018.68 1018.61 1018.93 1019.53 1020.00 1020.21 1020.91 1021.66 1021.92 1022.48 1022.83 1023.30 1023.72 1023.99 1024.31 1024.85 1025.18 1026.00 1026.61 1026.72 1026.81 1026.82 1026.93 1026.89 1027.04 1027.16 1027.13 1027.33
1014.73 1014.87 1015.14 1015.39 1015.49 1015.46 1015.59 1015.97 1016.07 1016.41 1016.77 1017.24 1017.78 1018.31 1018.69 1018.97 1019.17 1019.35 1020.02 1020.74 1021.19 1021.73 1022.28 1022.66 1023.26 1023.56 1023.91 1024.11 1024.38 1024.78 1025.09 1025.30 1025.64 1026.28 1026.62 1026.96 1027.09 1027.17 1027.25 1027.24 1027.21 1027.14 1027.37
1015.24 1015.30 1015.50 1015.78 1015.92 1016.04 1016.35 1016.64 1016.79 1017.07 1017.34 1017.73 1018.12 1018.57 1018.98 1019.32 1019.79 1020.33 1020.77 1021.23 1021.53 1022.13 1022.64 1023.00 1023.45 1023.82 1024.33 1024.61 1024.73 1024.97 1025.27 1025.54 1025.65 1026.26 1026.86 1027.14 1027.25 1027.19 1027.49 1027.46 1027.42 1027.53 1027.46
1015.57 1015.77 1015.96 1016.10 1016.34 1016.70 1016.98 1017.38 1017.67 1017.72 1017.88 1018.32 1018.76 1019.13 1019.61 1020.02 1020.41 1020.88 1021.21 1021.59 1022.10 1022.64 1023.15 1023.52 1023.95 1024.13 1024.30 1024.73 1025.01 1025.22 1025.43 1025.74 1026.04 1026.44 1027.04 1027.45 1027.40 1027.45 1027.62 1028.03 1028.00 1027.86 1027.63
1015.83 1016.17 1016.56 1016.86 1017.03 1017.35 1017.68 1018.00 1018.46 1018.74 1018.86 1019.04 1019.43 1019.92 1020.21 1020.33 1020.85 1021.40 1021.77 1022.19 1022.75 1023.24 1023.68 1023.92 1024.20 1024.28 1024.41 1024.80 1025.10 1025.30 1025.61 1025.91 1026.28 1026.78 1027.38 1027.73 1028.01 1028.06 1028.24 1028.39 1028.52 1028.47 1028.21
1015.98 1016.55 1016.97 1017.30 1017.66 1018.03 1018.37 1018.72 1019.05 1019.36 1019.71 1019.96 1020.27 1020.44 1020.64 1020.96 1021.34 1021.72 1022.29 1022.80 1023.36 1023.77 1024.13 1024.49 1024.38 1024.49 1024.61 1024.79 1025.12 1025.32 1025.93 1026.04 1026.48 1027.00 1027.70 1028.23 1028.39 1028.83 1028.79 1028.80 1028.79 1028.82 1028.60
1016.14 1016.65 1017.15 1017.52 1017.89 1018.29 1018.62 1018.99 1019.35 1019.89 1020.34 1020.64 1020.81 1020.93 1021.21 1021.47 1021.72 1022.14 1022.67 1023.12 1023.70 1024.20 1024.58 1024.84 1025.09 1025.14 1025.39 1025.49 1025.41 1025.75 1025.95 1026.03 1026.57 1027.10 1028.02 1028.21 1028.73 1028.87 1028.94 1028.84 1028.87 1028.83 1029.05
1016.31 1016.78 1017.14 1017.60 1018.13 1018.51 1019.05 1019.69 1020.22 1020.60 1021.03 1021.41 1021.73 1021.87 1021.86 1022.01 1022.14 1022.50 1023.10 1023.96 1024.27 1024.75 1024.96 1025.27 1025.53 1025.91 1025.89 1026.11 1026.25 1026.55 1026.80 1027.20 1027.28 1027.55 1028.18 1028.61 1028.57 1028.59 1028.61 1028.63 1028.63 1028.79 1028.76
1016.34 1016.74 1017.20 1017.82 1018.54 1019.17 1019.73 1020.21 1020.65 1021.23 1021.81 1022.21 1022.57 1022.78 1022.78 1022.73 1022.86 1023.31 1023.84 1024.47 1024.95 1025.32 1025.43 1025.69 1025.95 1026.11 1025.75 1025.90 1026.45 1026.78 1027.18 1027.30 1027.02 1027.27 1027.56 1027.68 1027.84 1027.87 1028.15 1028.51 1028.71 1028.81 1028.78
1016.12 1016.75 1017.40 1017.95 1018.58 1019.32 1019.91 1020.46 1020.89 1021.33 1022.00 1022.59 1023.16 1023.40 1023.48 1023.41 1023.21 1023.61 1024.32 1024.68 1025.38 1025.73 1026.01 1026.09 1025.97 1026.28 1026.05 1026.19 1026.72 1026.79 1027.32 1027.47 1027.38 1027.32 1027.77 1027.65 1027.68 1027.89 1027.88 1028.47 1028.61 1028.68 1028.65
1015.95 1016.75 1017.43 1018.04 1018.65 1019.34 1019.99 1020.52 1021.10 1021.73 1022.41 1023.03 1023.50 1023.87 1024.00 1024.01 1023.81 1023.72 1024.26 1024.81 1025.24 1025.77 1026.21 1026.53 1026.58 1026.27 1026.34 1026.53 1026.67 1026.77 1026.87 1027.14 1027.25 1027.50 1027.66 1027.58 1027.75 1027.76 1027.94 1028.00 1028.08 1028.35 1028.55
1015.78 1016.69 1017.50 1018.16 1018.72 1019.40 1020.06 1020.76 1021.16 1021.78 1022.52 1023.35 1023.93 1024.38 1024.44 1024.34 1023.83 1023.74 1024.06 1024.40 1024.76 1025.51 1026.14 1026.40 1026.44 1026.38 1026.62 1026.72 1026.88 1026.62 1026.71 1027.11 1027.33 1027.57 1027.67 1027.84 1027.96 1028.15 1028.10 1028.10 1028.07 1028.12 1028.16
1015.78 1016.75 1017.59 1018.26 1018.89 1019.47 1020.06 1020.87 1021.52 1022.03 1022.60 1023.32 1023.78 1024.25 1024.53 1024.58 1024.47 1024.15 1024.36 1024.62 1025.04 1025.87 1026.54 1026.57 1026.70 1026.90 1026.98 1027.20 1026.90 1026.88 1027.23 1027.52 1027.57 1027.68 1028.05 1028.15 1028.14 1028.13 1028.15 1028.11 1028.02 1027.98 1027.98
1015.59 1016.60 1017.44 1018.20 1018.93 1019.52 1020.10 1020.66 1021.33 1021.90 1022.39 1022.98 1023.52 1024.05 1024.52 1024.78 1024.70 1024.76 1024.92 1025.17 1025.20 1025.83 1026.02 1026.65 1026.76 1027.03 1027.10 1027.34 1027.36 1027.46 1027.62 1027.83 1027.82 1028.06 1028.15 1028.29 1028.25 1028.23 1028.20 1028.18 1028.11 1028.07 1027.99
1015.48 1016.49 1017.30 1018.11 1018.88 1019.57 1020.12 1020.56 1021.08 1021.52 1021.81 1022.31 1022.79 1023.19 1023.73 1024.31 1024.64 1024.88 1025.23 1025.59 1025.91 1026.12 1026.74 1027.18 1027.44 1027.63 1027.68 1027.58 1027.70 1027.77 1027.93 1027.96 1027.96 1028.08 1028.23 1028.36 1028.39 1028.32 1028.17 1028.03 1028.10 1028.05 1027.99
1015.19 1016.19 1016.92 1017.70 1018.52 1019.27 1020.04 1020.82 1021.04 1021.21 1021.58 1021.81 1022.25 1022.68 1023.27 1023.52 1023.93 1024.35 1024.85 1025.26 1025.66 1025.92 1026.68 1027.28 1027.51 1027.66 1027.83 1027.88 1027.81 1027.95 1027.93 1027.95 1028.09 1028.21 1028.32 1028.36 1028.37 1028.33 1028.20 1028.06 1028.06 1028.04 1028.04
1014.43 1015.61 1016.44 1017.17 1017.97 1018.82 1019.67 1020.26 1021.02 1021.46 1021.42 1021.62 1021.98 1022.47 1022.90 1023.21 1023.53 1024.06 1024.66 1025.01 1025.53 1026.14 1026.85 1027.33 1027.57 1027.70 1027.74 1027.85 1027.87 1028.04 1028.04 1028.10 1028.15 1028.28 1028.32 1028.34 1028.36 1028.23 1028.11 1028.17 1028.14 1027.99 1027.89
1013.90 1014.75 1015.78 1016.72 1017.51 1018.37 1019.22 1019.93 1020.53 1021.11 1021.74 1022.02 1021.98 1022.22 1022.54 1022.92 1023.51 1024.25 1024.88 1025.30 1025.74 1026.24 1026.82 1027.20 1027.52 1027.68 1027.67 1027.91 1027.92 1028.01 1028.02 1028.10 1028.20 1028.29 1028.30 1028.31 1028.34 1028.37 1028.38 1028.30 1028.19 1027.96 1027.68
1013.62 1014.58 1015.44 1016.26 1017.07 1017.93 1018.90 1019.80 1020.63 1021.26 1021.83 1022.21 1022.58 1022.71 1022.77 1023.16 1023.75 1024.27 1024.81 1025.43 1025.96 1026.38 1026.75 1027.07 1027.29 1027.51 1027.63 1027.82 1027.97 1028.07 1028.12 1028.18 1028.22 1028.27 1028.29 1028.31 1028.33 1028.29 1028.26 1028.13 1027.97 1027.65 1027.53
1013.26 1014.04 1015.01 1015.96 1016.93 1017.79 1018.64 1019.45 1020.48 1021.32 1021.84 1022.17 1022.35 1022.58 1022.90 1023.41 1023.94 1024.48 1024.99 1025.57 1025.94 1026.12 1026.37 1026.71 1027.10 1027.34 1027.52 1027.72 1027.88 1027.99 1028.05 1028.07 1028.11 1028.17 1028.22 1028.23 1028.19 1028.11 1028.02 1028.03 1027.96 1027.78 1027.58
1012.65 1013.49 1014.21 1015.34 1016.30 1017.24 1018.23 1019.14 1019.75 1020.57 1021.18 1021.63 1021.97 1022.25 1022.51 1023.09 1023.88 1024.39 1024.81 1025.37 1025.64 1025.82 1026.09 1026.53 1026.94 1027.19 1027.40 1027.58 1027.79 1027.93 1028.00 1028.02 1028.10 1028.17 1028.19 1028.19 1028.13 1028.11 1028.06 1027.92 1027.80 1027.62 1027.45
1012.25 1013.20 1014.13 1014.99 1015.92 1016.86 1017.70 1018.45 1019.09 1019.82 1020.61 1021.26 1021.76 1022.26 1022.83 1023.48 1023.85 1024.16 1024.62 1025.06 1025.43 1025.85 1025.98 1026.35 1026.80 1027.04 1027.38 1027.59 1027.66 1027.93 1027.93 1028.00 1028.09 1028.13 1028.11 1028.11 1028.08 1028.00 1027.93 1027.90 1027.76 1027.54 1027.35
1011.91 1012.90 1013.86 1014.77 1015.61 1016.46 1017.27 1017.98 1018.76 1019.51 1020.23 1020.93 1021.58 1022.16 1022.69 1023.44 1023.75 1024.02 1024.45 1024.86 1025.25 1025.70 1025.99 1026.29 1026.76 1027.14 1027.28 1027.55 1027.69 1027.81 1027.91 1027.98 1028.01 1028.03 1028.19 1028.17 1028.09 1027.97 1027.89 1027.75 1027.50 1027.27 1027.12
1011.58 1012.50 1013.49 1014.45 1015.25 1016.02 1016.91 1017.77 1018.49 1019.12 1019.83 1020.57 1021.19 1021.76 1022.37 1022.84 1023.33 1023.73 1024.24 1024.66 1025.21 1025.66 1025.98 1026.44 1026.86 1027.15 1027.25 1027.39 1027.55 1027.60 1027.71 1027.81 1027.94 1027.98 1027.94 1027.95 1027.92 1027.83 1027.70 1027.49 1027.22 1026.98 1026.81
1011.24 1012.23 1013.25 1014.03 1014.85 1015.69 1016.62 1017.46 1018.20 1018.87 1019.53 1020.22 1020.97 1021.50 1022.04 1022.64 1023.26 1023.71 1024.16 1024.65 1025.31 1025.75 1026.18 1026.57 1026.90 1026.95 1026.99 1027.23 1027.39 1027.47 1027.62 1027.77 1027.85 1027.83 1027.86 1027.82 1027.91 1027.80 1027.57 1027.29 1026.94 1026.68 1026.46
1011.06 1011.96 1012.94 1013.82 1014.62 1015.40 1016.20 1017.11 1017.90 1018.56 1019.32 1019.99 1020.58 1021.17 1021.83 1022.50 1023.05 1023.56 1024.08 1024.82 1025.42 1025.90 1026.25 1026.56 1026.68 1026.76 1026.86 1027.04 1027.21 1027.45 1027.62 1027.69 1027.69 1027.64 1027.58 1027.52 1027.42 1027.35 1027.15 1026.93 1026.65 1026.43 1026.23
Wind_Speed
6 6 7 6 7 7 7 7 8 8 7 9 9 7 7 6 6 10 9 6 11 9 7 9 8 6 5 4 4 4 3 3 3 2 2 1 1 1 2 2 2 3 2
6 7 7 7 7 8 9 8 8 9 9 9 9 8 7 7 6 8 8 7 9 9 7 9 6 4 5 4 3 3 3 2 3 3 1 1 1 1 2 2 1 1 1
7 7 8 7 8 9 8 8 8 9 9 9 9 8 8 8 8 7 7 7 7 7 6 6 5 5 3 1 2 3 2 2 2 3 2 1 1 1 2 1 1 2 3
8 8 8 8 9 9 9 9 8 8 10 10 8 8 8 7 7 7 7 8 7 6 5 5 4 4 5 4 4 4 3 4 3 3 2 1 1 1 3 1 2 2 3
9 9 9 8 8 8 9 9 8 7 8 9 10 8 8 8 5 6 6 7 7 6 5 4 4 6 9 7 4 4 4 3 3 3 2 2 1 2 1 1 1 2 3
10 9 8 8 8 8 8 9 8 8 8 8 9 9 9 6 14 13 9 7 7 7 6 5 4 9 9 11 11 9 5 3 3 3 2 1 2 1 1 1 1 2 3
9 8 8 9 9 8 9 9 9 9 8 8 9 10 9 8 15 15 14 7 7 6 6 6 5 5 8 6 10 9 9 10 8 4 4 3 3 1 2 0 0 2 3
11 10 10 10 10 9 8 8 7 7 8 7 7 7 7 8 16 17 16 7 7 7 6 6 7 5 5 5 5 5 5 6 6 5 6 4 3 2 2 2 2 2 2
12 12 10 8 7 8 8 8 7 9 8 6 6 7 7 6 15 16 11 7 7 7 6 6 6 5 7 8 6 6 5 2 10 13 9 6 4 4 1 2 2 2 2
9 9 9 9 10 9 8 8 5 6 8 7 7 6 9 6 13 14 10 5 6 4 5 6 10 6 5 5 3 4 6 5 3 4 2 4 3 2 3 3 2 2 1
10 11 10 9 10 8 7 5 6 7 9 8 7 6 6 6 8 12 13 4 5 4 4 3 2 6 7 5 6 4 4 5 6 4 2 4 3 1 2 1 1 2 2
13 12 11 10 9 8 10 5 8 10 10 7 7 5 3 4 8 13 14 10 11 6 5 3 4 9 6 6 4 6 5 5 3 3 3 1 1 1 2 2 2 2 2
13 12 11 9 9 9 10 8 7 7 7 8 7 6 4 3 3 12 11 11 14 7 4 7 8 6 6 7 5 4 4 2 2 3 2 2 1 1 2 2 2 3 3
14 12 10 11 9 7 6 6 7 6 6 6 6 5 4 4 4 3 4 5 12 7 9 6 6 5 5 3 3 3 3 2 2 1 0 1 1 1 2 1 1 1 1
13 12 11 9 10 7 6 6 6 3 7 7 5 6 8 5 5 8 7 4 4 6 6 3 1 1 2 2 2 2 2 0 1 0 1 1 2 2 2 1 2 2 1
13 10 10 8 7 6 6 4 5 10 12 12 13 10 4 9 15 15 13 11 11 14 3 2 2 3 3 2 2 2 2 2 1 1 1 2 2 2 3 2 1 1 3
14 12 10 10 9 9 8 8 7 5 10 13 13 14 13 10 16 15 14 13 13 8 3 2 2 2 1 2 2 2 1 1 1 2 1 2 3 2 3 2 3 2 3
13 19 11 9 9 8 8 7 7 8 6 3 9 11 13 13 15 15 13 10 4 3 2 3 3 3 3 2 2 2 2 1 1 1 1 2 1 1 2 2 3 4 3
12 10 9 8 7 9 7 7 6 6 6 5 3 6 12 15 14 13 13 3 3 3 3 3 3 3 2 2 2 1 1 1 1 0 1 1 2 2 2 3 3 7 6
9 14 11 8 7 8 8 8 7 6 6 7 6 6 5 9 6 5 4 3 3 4 4 3 4 3 3 3 3 2 1 1 1 1 1 2 2 2 2 2 3 3 3
8 10 16 9 9 8 8 8 8 7 7 7 6 7 15 8 7 8 6 4 4 3 3 4 4 3 3 3 2 1 1 1 1 1 2 2 3 2 3 3 3 3 4
9 9 9 9 8 8 8 8 8 8 7 7 5 8 18 4 6 6 5 5 3 3 4 4 4 4 3 3 2 2 2 1 1 2 2 1 1 2 2 2 4 3 3
9 9 8 7 8 11 9 8 8 7 7 7 7 7 8 6 6 5 5 4 4 4 4 4 4 4 3 3 2 2 1 1 1 1 1 2 2 3 3 3 4 4 4
9 10 10 8 8 8 8 8 7 9 8 8 8 8 9 8 6 6 5 4 4 4 4 4 4 5 3 1 1 0 1 2 2 0 1 2 3 5 4 5 5 6 4
9 9 9 10 9 8 8 7 7 7 8 8 7 8 7 5 5 5 4 4 4 4 5 4 3 5 4 4 3 3 5 3 1 2 2 4 5 5 5 5 6 5 6
9 10 8 7 7 8 8 8 8 8 8 7 7 7 7 6 5 5 5 5 4 4 5 4 5 6 4 3 3 5 3 1 3 6 4 4 4 4 5 7 8 5 7
Wind_Direction
96 98 98 100 99 101 90 78 80 86 100 109 106 101 96 91 81 96 91 90 96 96 79 95 90 91 90 78 76 76 93 106 164 168 178 202 168 180 120 104 71 71 36
85 82 83 92 91 93 93 90 93 95 95 104 110 105 98 89 73 86 92 99 101 99 105 100 101 98 87 90 104 124 138 147 131 151 117 141 178 184 115 88 24 13 348
98 95 91 85 89 86 82 92 96 102 102 105 112 116 114 104 93 92 101 101 98 108 119 126 135 116 126 131 97 107 115 127 93 114 121 112 103 106 93 30 6 351 306
100 94 87 87 91 94 99 90 91 99 103 98 93 101 104 108 110 116 115 107 99 97 105 118 140 156 147 134 123 126 113 93 93 93 79 90 134 77 77 68 357 352 309
109 100 99 96 90 89 91 91 78 77 88 94 98 93 98 100 107 105 101 101 103 94 87 97 113 128 133 136 126 106 105 99 91 93 87 66 351 22 71 5 77 328 313
119 113 114 103 100 98 100 99 97 87 81 87 90 94 88 90 112 114 111 111 108 110 108 98 97 113 122 118 116 106 108 105 93 101 93 134 40 80 35 124 108 39 331
124 123 122 122 118 118 117 115 110 103 95 89 86 91 92 100 115 117 114 104 106 103 100 96 89 83 83 87 108 97 85 85 91 118 112 108 114 199 182 58 87 140 238
140 143 141 137 135 134 115 108 103 98 94 91 83 75 83 103 113 113 107 92 91 88 96 110 109 108 121 112 106 99 86 93 103 97 105 132 149 169 135 178 201 261 285
154 157 152 139 125 121 121 119 109 106 98 90 93 88 90 97 117 117 107 96 93 88 80 89 107 112 119 112 98 115 129 127 128 120 110 71 42 41 76 68 36 46 352
160 143 137 136 137 136 134 130 124 122 119 112 104 106 111 96 125 126 118 109 106 103 79 76 103 94 76 75 97 129 160 193 181 95 57 73 4 308 72 120 134 66 69
144 143 144 143 138 137 129 121 121 113 119 125 122 117 113 117 112 131 139 136 140 128 111 100 78 92 102 76 86 108 164 150 136 112 117 70 320 215 212 181 58 59 336
146 146 145 142 143 137 130 131 128 130 132 129 123 115 129 136 128 122 122 123 146 130 139 132 124 105 97 74 75 73 100 94 113 90 60 30 284 355 13 16 355 280 243
145 147 145 139 139 144 140 143 135 141 142 146 149 148 150 143 127 131 128 108 118 106 125 131 113 89 59 32 15 9 68 70 66 65 345 283 250 271 305 308 305 303 294
149 150 147 147 148 144 143 148 149 154 150 151 148 140 136 143 157 133 115 115 128 127 126 110 122 124 107 58 40 25 100 89 70 24 4 302 301 299 293 271 254 302 308
151 154 154 156 157 151 153 160 159 170 162 158 167 157 157 173 190 166 154 143 144 149 128 90 99 123 144 128 101 135 148 99 337 310 178 268 285 293 291 266 231 269 272
155 160 162 155 157 151 141 97 173 163 179 173 166 162 176 170 175 175 176 183 182 161 120 152 179 178 166 164 143 235 223 257 241 257 263 262 282 288 294 311 334 254 278
163 165 166 162 163 158 154 148 136 55 160 166 162 169 166 168 169 164 156 147 152 138 118 154 184 178 186 177 185 233 235 225 226 243 248 274 275 302 329 317 293 314 283
168 168 166 170 168 163 163 152 143 146 139 114 145 151 153 154 155 156 158 145 157 148 129 165 182 184 171 193 202 192 155 112 81 5 308 287 268 292 309 298 304 278 290
165 170 165 165 160 158 150 148 148 144 148 144 130 144 159 156 159 162 164 146 151 177 192 200 190 182 173 184 175 146 162 216 225 192 294 250 268 259 282 286 287 329 332
164 162 158 156 157 154 154 155 152 158 161 171 173 169 151 147 157 158 166 169 191 200 199 185 176 168 159 168 175 177 197 270 0 32 340 328 313 306 312 336 316 299 284
163 162 164 157 163 162 160 163 162 165 174 182 183 176 171 160 159 179 179 185 204 208 166 154 155 147 138 143 137 157 193 196 94 347 328 330 322 333 307 293 301 311 295
159 160 166 165 155 156 162 166 168 169 167 169 169 175 178 158 168 180 175 192 203 188 162 147 140 139 132 133 127 126 112 113 299 333 322 342 356 324 345 327 309 317 307
161 154 155 152 154 158 163 164 166 165 163 157 150 157 172 160 184 178 179 172 166 153 141 139 136 134 138 110 121 138 147 288 351 39 49 351 326 327 318 297 290 298 316
158 156 152 152 157 163 161 162 160 163 149 151 156 162 171 181 184 173 155 149 148 152 141 129 130 134 128 166 187 183 131 104 110 179 356 336 310 315 300 293 292 283 286
154 151 152 160 165 157 152 155 158 154 155 156 156 162 171 154 156 146 146 149 143 137 140 135 139 153 161 189 205 181 148 153 202 345 321 292 289 290 288 287 298 296 286
149 150 153 150 149 152 156 154 159 153 151 154 155 157 154 149 149 144 148 144 139 134 144 153 157 161 170 194 185 141 158 253 321 301 283 273 283 291 295 299 302 312 309